Regional Weather Roundup
Issued by NWS

Home | Current Version | Previous Version | Text Only | Print | Product List | Glossary Off
Versions: 1 2 3 4 5 6 7 8 9 10 11 12 13 14 15 16 17 18 19 20 21 22 23 24 25 26 27 28 29 30 31 32 33 34 35 36 37 38 39 40 41 42 43 44 45 46 47 48 49 50

000
ASUS43 KBIS 181920
RWRND

NORTH DAKOTA REGIONAL WEATHER ROUNDUP
NATIONAL WEATHER SERVICE BISMARCK ND
200 PM CDT THU SEP 18 2014

NOTE: "FAIR" INDICATES FEW OR NO CLOUDS BELOW 12,000 FEET WITH NO
SIGNIFICANT WEATHER AND/OR OBSTRUCTIONS TO VISIBILITY.


NDZ001>003-009>011-017-182000-
NORTHWEST NORTH DAKOTA

CITY           SKY/WX    TMP DP  RH WIND       PRES   REMARKS
WILLISTON      PTSUNNY   81  54  39 SW8       29.66F
MINOT          PTSUNNY   73  57  57 S21       29.71F
MINOT AFB      PTSUNNY   74  59  60 S18G25    29.70F
$$

NDZ018>021-031>035-040>046-182000-
SOUTHWEST NORTH DAKOTA

CITY           SKY/WX    TMP DP  RH WIND       PRES   REMARKS
BISMARCK       MOSUNNY   78  61  55 S14       29.78F
DICKINSON      MOSUNNY   78  58  49 S14       29.74F
GARRISON         N/A     75  62  64 S14G23    29.74F
HETTINGER ARPT MOSUNNY   77  58  51 SE14      29.79F
$$

NDZ004>008-012>016-024-026-027-054-182000-
NORTHEAST NORTH DAKOTA

CITY           SKY/WX    TMP DP  RH WIND       PRES   REMARKS
GRAND FORKS    MOSUNNY   68  55  63 S15       29.89F
GRND FRKS AFB  SUNNY     64  57  76 SE14      29.90F
DEVILS LAKE    SUNNY     73  55  53 S20G26    29.79F
$$

NDZ022-023-025-028>030-036>039-047>053-182000-
SOUTHEAST NORTH DAKOTA

CITY           SKY/WX    TMP DP  RH WIND       PRES   REMARKS
FARGO          SUNNY     70  55  59 S16G22    29.91F
JAMESTOWN      SUNNY     74  57  55 S14       29.84F
$$




USA.gov is the U.S. government's official web portal to all federal, state and local government web resources and services.